Weather in Repnoye

Russia / Saratov Oblast     51°35′15″N   43°10′37″E
temp.,
°C
wind,
m/s
gust,
m/s
humid.,
%
clouds,
%
prec.,
mm/h
press.,
hPa
HPBL,
m
11 april, sun
sun1101:00+3n51095100 0.0 1023396
04:00+3n5129595 0.0 1024394
07:00+3nne61394100 0.0 1025418
10:00+5nne71389100 0.0 1025484
13:00+9ne71079100 0.0 1025648
16:00+11ne687697 0.0 1025755
19:00+11ne61082100 0.0 1025392
22:00+8ne5994100 0.0 1026207
12 april, mon
mon1201:00+7ne4995100 0.0 1027170
04:00+7ne4793100 0.0 1027113
07:00+7ene499292 0.0 1027133
10:00+15ese61058100 0.0 1027340
13:00+19ese71040100 0.0 1027854
16:00+21se793394 0.0 10271600
19:00+17ese494527 0.0 1027192
22:00+13ese4116471 0.0 1029170
13 april, tue
tue1301:00+10ese4126447 0.0 1029194
04:00+8ese4126597 0.0 1029191
07:00+7ese4126864 0.0 1029183
10:00+14se610465 0.0 1029431
13:00+19se783213 0.0 10281014
16:00+20se7829100 0.0 10271547
19:00+16ese484399 0.0 1027196
22:00+12ese49580 0.0 1027125
14 april, wed
wed1401:00+10ese411641 0.0 1026170
04:00+8ese412700 0.0 1026181
07:00+8ese5127121 0.0 1025192
10:00+14ese6114674 0.0 1024451
13:00+18ese7834100 0.0 10231087
16:00+19se672980 0.0 10221572
19:00+16ese4844100 0.0 1021153
22:00+12ese4957100 0.0 1021126
15 april, thu
thu1501:00+10ese4861100 0.0 1020124
04:00+9ese4765100 0.0 1020110
07:00+9ese48716 0.0 1019124
10:00+15ese575220 0.0 1018374
13:00+19ese56380 0.0 10171282
16:00+21ese56330 0.0 10162348
19:00+18ese47464 0.0 1015163
22:00+14ese47610 0.0 1015100